| time (UTC) | temp F | wind direction | speed MPH | gust MPH | rain 1hr in | rain 24hr in | rain mn in | humidity % | barometer mb |
| 20260504130550 | 58 | 245 | 4.0 | 9.0 | 0.00 | 0.00 | 0.00 | 67 | 1006.4 |
| 20260504110326 | 51 | 219 | 2.0 | 6.0 | 0.00 | 0.00 | 0.00 | 72 | 1006.7 |
| 20260504110321 | 51 | 222 | 2.0 | 9.0 | 0.00 | 0.00 | 0.00 | 72 | 1006.8 |
| 20260504100213 | 50 | 227 | 1.0 | 5.0 | 0.00 | 0.00 | 0.00 | 71 | 1006.5 |
| 20260504081556 | 50 | 200 | 1.0 | 4.0 | 0.00 | 0.00 | 0.00 | 69 | 1007.1 |
| 20260504081057 | 50 | 231 | 1.0 | 3.0 | 0.00 | 0.00 | 0.00 | 69 | 1007.1 |
| 20260504080828 | 50 | 237 | 1.0 | 3.0 | 0.00 | 0.00 | 0.00 | 69 | 1007.1 |
| 20260504050536 | 54 | 210 | 4.0 | 11.0 | 0.00 | 0.00 | 0.00 | 63 | 1009.3 |
| 20260504045537 | 54 | 242 | 3.0 | 13.0 | 0.00 | 0.00 | 0.00 | 63 | 1009.4 |
| 20260504045037 | 54 | 191 | 2.0 | 7.0 | 0.00 | 0.00 | 0.00 | 63 | 1009.4 |
| 20260504044538 | 54 | 231 | 3.0 | 7.0 | 0.00 | 0.00 | 0.00 | 63 | 1009.5 |
| 20260504044038 | 54 | 248 | 3.0 | 7.0 | 0.00 | 0.00 | 0.00 | 63 | 1009.6 |
| 20260504044032 | 54 | 196 | 3.0 | 7.0 | 0.00 | 0.00 | 0.00 | 63 | 1009.5 |
| 20260504043033 | 53 | 231 | 3.0 | 7.0 | 0.00 | 0.00 | 0.00 | 63 | 1009.6 |
| 20260504042532 | 53 | 254 | 3.0 | 8.0 | 0.00 | 0.00 | 0.00 | 63 | 1009.7 |
| 20260504042033 | 53 | 229 | 3.0 | 12.0 | 0.00 | 0.00 | 0.00 | 63 | 1009.6 |
| 20260504041803 | 54 | 207 | 3.0 | 12.0 | 0.00 | 0.00 | 0.00 | 63 | 1009.7 |
| 20260504041654 | 53 | 220 | 4.0 | 9.0 | 0.00 | 0.00 | 0.00 | 63 | 1009.8 |
| 20260504040532 | 53 | 248 | 4.0 | 9.0 | 0.00 | 0.00 | 0.00 | 63 | 1009.8 |
| 20260504040034 | 54 | 218 | 4.0 | 11.0 | 0.00 | 0.00 | 0.00 | 63 | 1009.9 |
| 20260504035526 | 54 | 224 | 4.0 | 11.0 | 0.00 | 0.00 | 0.00 | 63 | 1010.0 |
| 20260504035021 | 54 | 157 | 5.0 | 11.0 | 0.00 | 0.00 | 0.00 | 62 | 1010.0 |
| 20260504034515 | 54 | 232 | 5.0 | 11.0 | 0.00 | 0.00 | 0.00 | 62 | 1010.0 |
| 20260504034008 | 54 | 208 | 4.0 | 12.0 | 0.00 | 0.00 | 0.00 | 61 | 1010.0 |
| 20260504033503 | 54 | 220 | 4.0 | 12.0 | 0.00 | 0.00 | 0.00 | 62 | 1010.1 |
| 20260504032956 | 54 | 226 | 3.0 | 10.0 | 0.00 | 0.00 | 0.00 | 62 | 1010.1 |
| 20260504032451 | 54 | 233 | 3.0 | 9.0 | 0.00 | 0.00 | 0.00 | 62 | 1010.2 |
| 20260504031945 | 54 | 231 | 4.0 | 16.0 | 0.00 | 0.00 | 0.00 | 62 | 1010.4 |
| 20260504031439 | 54 | 211 | 4.0 | 16.0 | 0.00 | 0.00 | 0.00 | 62 | 1010.4 |
| 20260504030933 | 54 | 205 | 3.0 | 10.0 | 0.00 | 0.00 | 0.00 | 62 | 1010.5 |
| 20260504030433 | 54 | 225 | 2.0 | 8.0 | 0.00 | 0.00 | 0.00 | 62 | 1010.5 |
| 20260504025933 | 54 | 201 | 3.0 | 9.0 | 0.00 | 0.00 | 0.00 | 62 | 1010.6 |
| 20260504025433 | 54 | 200 | 4.0 | 11.0 | 0.00 | 0.00 | 0.00 | 62 | 1010.5 |
| 20260504024930 | 54 | 221 | 3.0 | 11.0 | 0.00 | 0.00 | 0.00 | 62 | 1010.6 |
| 20260504024430 | 55 | 214 | 2.0 | 7.0 | 0.00 | 0.00 | 0.00 | 62 | 1010.7 |
| 20260504023930 | 55 | 232 | 3.0 | 9.0 | 0.00 | 0.00 | 0.00 | 62 | 1010.7 |
| 20260504023429 | 55 | 239 | 3.0 | 9.0 | 0.00 | 0.00 | 0.00 | 62 | 1010.7 |
| 20260504022928 | 55 | 228 | 3.0 | 8.0 | 0.00 | 0.00 | 0.00 | 62 | 1010.7 |
| 20260504022700 | 55 | 273 | 3.0 | 9.0 | 0.00 | 0.00 | 0.00 | 63 | 1010.8 |
| 20260504021926 | 55 | 222 | 3.0 | 9.0 | 0.00 | 0.00 | 0.00 | 62 | 1010.7 |
| 20260504021427 | 55 | 240 | 2.0 | 7.0 | 0.00 | 0.00 | 0.00 | 62 | 1010.7 |
| 20260504020925 | 55 | 188 | 2.0 | 10.0 | 0.00 | 0.00 | 0.00 | 62 | 1010.8 |
| 20260504020424 | 55 | 214 | 3.0 | 10.0 | 0.00 | 0.00 | 0.00 | 61 | 1010.7 |
| 20260504020156 | 55 | 238 | 3.0 | 8.0 | 0.00 | 0.00 | 0.00 | 61 | 1010.9 |
| 20260504015656 | 55 | 231 | 4.0 | 15.0 | 0.00 | 0.00 | 0.00 | 61 | 1010.8 |
| 20260504014923 | 55 | 191 | 3.0 | 15.0 | 0.00 | 0.00 | 0.00 | 60 | 1010.7 |
| 20260504014654 | 56 | 196 | 3.0 | 12.0 | 0.00 | 0.00 | 0.00 | 60 | 1010.7 |
| 20260504013927 | 56 | 252 | 4.0 | 14.0 | 0.00 | 0.00 | 0.00 | 60 | 1010.7 |
| 20260504013421 | 56 | 229 | 4.0 | 14.0 | 0.00 | 0.00 | 0.00 | 60 | 1010.7 |
| 20260504012916 | 56 | 243 | 4.0 | 14.0 | 0.00 | 0.00 | 0.00 | 59 | 1010.7 |
| 20260504012409 | 56 | 239 | 4.0 | 14.0 | 0.00 | 0.00 | 0.00 | 59 | 1010.7 |
| 20260504011903 | 56 | 271 | 5.0 | 15.0 | 0.00 | 0.00 | 0.00 | 58 | 1010.7 |
| 20260504011357 | 57 | 287 | 6.0 | 17.0 | 0.00 | 0.00 | 0.00 | 58 | 1010.7 |
| 20260504011122 | 57 | 205 | 5.0 | 17.0 | 0.00 | 0.00 | 0.00 | 57 | 1010.7 |
| 20260504010345 | 57 | 224 | 5.0 | 13.0 | 0.00 | 0.00 | 0.00 | 56 | 1010.7 |
| 20260504005839 | 57 | 228 | 6.0 | 21.0 | 0.00 | 0.00 | 0.00 | 56 | 1010.7 |
| 20260504005333 | 58 | 178 | 7.0 | 21.0 | 0.00 | 0.00 | 0.00 | 55 | 1010.6 |
| 20260504004828 | 58 | 243 | 6.0 | 16.0 | 0.00 | 0.00 | 0.00 | 56 | 1010.6 |
| 20260504004321 | 58 | 243 | 7.0 | 18.0 | 0.00 | 0.00 | 0.00 | 56 | 1010.4 |
| 20260504003815 | 59 | 244 | 8.0 | 18.0 | 0.00 | 0.00 | 0.00 | 55 | 1010.5 |
| 20260504003309 | 59 | 236 | 8.0 | 16.0 | 0.00 | 0.00 | 0.00 | 54 | 1010.4 |
| 20260504002803 | 60 | 240 | 7.0 | 19.0 | 0.00 | 0.00 | 0.00 | 53 | 1010.2 |
| 20260504002257 | 60 | 271 | 6.0 | 16.0 | 0.00 | 0.00 | 0.00 | 52 | 1010.1 |
| 20260504001755 | 60 | 210 | 7.0 | 16.0 | 0.00 | 0.00 | 0.00 | 51 | 1010.0 |
| 20260504001255 | 60 | 223 | 7.0 | 17.0 | 0.00 | 0.00 | 0.00 | 50 | 1009.9 |
| 20260504000755 | 61 | 286 | 6.0 | 17.0 | 0.00 | 0.00 | 0.00 | 48 | 1009.9 |
| 20260504000255 | 61 | 242 | 6.0 | 17.0 | 0.00 | 0.00 | 0.00 | 48 | 1009.8 |
| 20260503235753 | 61 | 304 | 8.0 | 19.0 | 0.00 | 0.00 | 0.00 | 48 | 1009.9 |
| 20260503235255 | 61 | 236 | 8.0 | 19.0 | 0.00 | 0.00 | 0.00 | 47 | 1009.9 |
| 20260503234754 | 61 | 283 | 7.0 | 15.0 | 0.00 | 0.00 | 0.00 | 47 | 1009.8 |
| 20260503234255 | 61 | 231 | 7.0 | 15.0 | 0.00 | 0.00 | 0.00 | 47 | 1009.8 |
| 20260503233755 | 61 | 184 | 7.0 | 15.0 | 0.00 | 0.00 | 0.00 | 47 | 1009.9 |
| 20260503233257 | 61 | 255 | 7.0 | 15.0 | 0.00 | 0.00 | 0.00 | 46 | 1009.9 |
| 20260503233026 | 61 | 208 | 7.0 | 16.0 | 0.00 | 0.00 | 0.00 | 46 | 1009.9 |
| 20260503232254 | 62 | 260 | 7.0 | 16.0 | 0.00 | 0.00 | 0.00 | 45 | 1010.0 |
| 20260503231753 | 62 | 236 | 5.0 | 13.0 | 0.00 | 0.00 | 0.00 | 46 | 1010.0 |
| 20260503231254 | 62 | 236 | 7.0 | 18.0 | 0.00 | 0.00 | 0.00 | 46 | 1010.1 |
| 20260503230753 | 62 | 233 | 8.0 | 18.0 | 0.00 | 0.00 | 0.00 | 45 | 1010.0 |
| 20260503230254 | 63 | 256 | 6.0 | 17.0 | 0.00 | 0.00 | 0.00 | 43 | 1009.9 |
| 20260503225748 | 64 | 245 | 5.0 | 16.0 | 0.00 | 0.00 | 0.00 | 44 | 1009.9 |
| 20260503225243 | 64 | 236 | 7.0 | 16.0 | 0.00 | 0.00 | 0.00 | 43 | 1009.9 |
| 20260503224736 | 63 | 206 | 9.0 | 22.0 | 0.00 | 0.00 | 0.00 | 43 | 1010.1 |
| 20260503224231 | 63 | 255 | 8.0 | 22.0 | 0.00 | 0.00 | 0.00 | 42 | 1010.2 |
| 20260503223728 | 64 | 247 | 7.0 | 19.0 | 0.00 | 0.00 | 0.00 | 42 | 1010.4 |
| 20260503223227 | 64 | 246 | 10.0 | 21.0 | 0.00 | 0.00 | 0.00 | 42 | 1010.5 |
| 20260503222958 | 64 | 236 | 10.0 | 21.0 | 0.00 | 0.00 | 0.00 | 41 | 1010.4 |
| 20260503222228 | 65 | 262 | 8.0 | 19.0 | 0.00 | 0.00 | 0.00 | 41 | 1010.4 |
| 20260503221727 | 65 | 241 | 6.0 | 16.0 | 0.00 | 0.00 | 0.00 | 42 | 1010.4 |
| 20260503221228 | 65 | 246 | 6.0 | 18.0 | 0.00 | 0.00 | 0.00 | 43 | 1010.4 |
| 20260503220729 | 64 | 246 | 7.0 | 18.0 | 0.00 | 0.00 | 0.00 | 43 | 1010.4 |
| 20260503220227 | 64 | 255 | 8.0 | 19.0 | 0.00 | 0.00 | 0.00 | 43 | 1010.2 |
| 20260503215729 | 63 | 193 | 7.0 | 19.0 | 0.00 | 0.00 | 0.00 | 43 | 1010.4 |
| 20260503215228 | 63 | 254 | 6.0 | 16.0 | 0.00 | 0.00 | 0.00 | 43 | 1010.4 |
| 20260503214729 | 63 | 252 | 6.0 | 16.0 | 0.00 | 0.00 | 0.00 | 44 | 1010.4 |
| 20260503214228 | 63 | 224 | 7.0 | 17.0 | 0.00 | 0.00 | 0.00 | 43 | 1010.2 |
| 20260503213728 | 63 | 209 | 7.0 | 17.0 | 0.00 | 0.00 | 0.00 | 43 | 1010.4 |
| 20260503213228 | 63 | 257 | 8.0 | 19.0 | 0.00 | 0.00 | 0.00 | 44 | 1010.2 |
| 20260503212727 | 63 | 267 | 8.0 | 19.0 | 0.00 | 0.00 | 0.00 | 43 | 1010.5 |
| 20260503212226 | 64 | 245 | 7.0 | 23.0 | 0.00 | 0.00 | 0.00 | 42 | 1010.5 |
| 20260503211726 | 64 | 213 | 7.0 | 23.0 | 0.00 | 0.00 | 0.00 | 43 | 1010.5 |
| 20260503211226 | 64 | 275 | 8.0 | 18.0 | 0.00 | 0.00 | 0.00 | 41 | 1010.2 |
| 20260503210725 | 64 | 225 | 9.0 | 20.0 | 0.00 | 0.00 | 0.00 | 41 | 1010.4 |
| 20260503210225 | 64 | 172 | 9.0 | 25.0 | 0.00 | 0.00 | 0.00 | 42 | 1010.4 |
| 20260503205725 | 63 | 248 | 9.0 | 27.0 | 0.00 | 0.00 | 0.00 | 41 | 1010.4 |
| 20260503205227 | 63 | 215 | 9.0 | 27.0 | 0.00 | 0.00 | 0.00 | 41 | 1010.4 |
| 20260503204725 | 63 | 226 | 7.0 | 21.0 | 0.00 | 0.00 | 0.00 | 41 | 1010.5 |
| 20260503204226 | 63 | 241 | 8.0 | 18.0 | 0.00 | 0.00 | 0.00 | 42 | 1010.5 |
| 20260503203724 | 63 | 210 | 8.0 | 18.0 | 0.00 | 0.00 | 0.00 | 41 | 1010.6 |
| 20260503203223 | 64 | 232 | 8.0 | 19.0 | 0.00 | 0.00 | 0.00 | 41 | 1010.6 |
| 20260503202724 | 64 | 207 | 8.0 | 22.0 | 0.00 | 0.00 | 0.00 | 40 | 1010.5 |
| 20260503202225 | 64 | 238 | 8.0 | 22.0 | 0.00 | 0.00 | 0.00 | 40 | 1010.5 |
| 20260503201954 | 64 | 238 | 7.0 | 19.0 | 0.00 | 0.00 | 0.00 | 41 | 1010.6 |
| 20260503201224 | 63 | 167 | 8.0 | 19.0 | 0.00 | 0.00 | 0.00 | 41 | 1010.6 |
| 20260503200723 | 63 | 269 | 7.0 | 19.0 | 0.00 | 0.00 | 0.00 | 40 | 1010.7 |
| 20260503200229 | 63 | 239 | 8.0 | 22.0 | 0.00 | 0.00 | 0.00 | 38 | 1010.8 |
| 20260503200223 | 63 | 263 | 7.0 | 19.0 | 0.00 | 0.00 | 0.00 | 40 | 1010.8 |
| 20260503195828 | 63 | 214 | 8.0 | 22.0 | 0.00 | 0.00 | 0.00 | 39 | 1010.8 |
| 20260503194720 | 64 | 267 | 7.0 | 20.0 | 0.00 | 0.00 | 0.00 | 39 | 1010.9 |
| 20260503194221 | 64 | 258 | 6.0 | 17.0 | 0.00 | 0.00 | 0.00 | 39 | 1011.0 |
| 20260503193720 | 64 | 283 | 6.0 | 18.0 | 0.00 | 0.00 | 0.00 | 39 | 1011.1 |
| 20260503193220 | 63 | 261 | 8.0 | 19.0 | 0.00 | 0.00 | 0.00 | 39 | 1011.1 |
| 20260503192719 | 63 | 214 | 10.0 | 24.0 | 0.00 | 0.00 | 0.00 | 39 | 1011.3 |
| 20260503192220 | 63 | 240 | 10.0 | 24.0 | 0.00 | 0.00 | 0.00 | 38 | 1011.3 |
| 20260503191720 | 64 | 298 | 8.0 | 23.0 | 0.00 | 0.00 | 0.00 | 39 | 1011.2 |
| 20260503191452 | 64 | 209 | 8.0 | 22.0 | 0.00 | 0.00 | 0.00 | 38 | 1011.4 |
| 20260503190716 | 64 | 220 | 8.0 | 22.0 | 0.00 | 0.00 | 0.00 | 39 | 1011.4 |
| 20260503190215 | 65 | 236 | 8.0 | 24.0 | 0.00 | 0.00 | 0.00 | 38 | 1011.5 |
| 20260503185716 | 65 | 115 | 7.0 | 24.0 | 0.00 | 0.00 | 0.00 | 39 | 1011.6 |
| 20260503185215 | 65 | 220 | 6.0 | 16.0 | 0.00 | 0.00 | 0.00 | 40 | 1011.6 |
| 20260503184716 | 64 | 265 | 7.0 | 18.0 | 0.00 | 0.00 | 0.00 | 39 | 1011.7 |
| 20260503184215 | 64 | 228 | 7.0 | 18.0 | 0.00 | 0.00 | 0.00 | 41 | 1011.8 |
| 20260503183716 | 62 | 245 | 8.0 | 18.0 | 0.00 | 0.00 | 0.00 | 40 | 1011.8 |
| 20260503183449 | 62 | 318 | 8.0 | 21.0 | 0.00 | 0.00 | 0.00 | 40 | 1012.0 |
| 20260503182716 | 62 | 224 | 8.0 | 21.0 | 0.00 | 0.00 | 0.00 | 39 | 1012.1 |
| 20260503182213 | 62 | 166 | 8.0 | 19.0 | 0.00 | 0.00 | 0.00 | 40 | 1012.1 |
| 20260503181713 | 62 | 248 | 8.0 | 20.0 | 0.00 | 0.00 | 0.00 | 41 | 1012.2 |
| 20260503181214 | 63 | 240 | 7.0 | 20.0 | 0.00 | 0.00 | 0.00 | 39 | 1012.2 |
| 20260503180715 | 63 | 247 | 8.0 | 20.0 | 0.00 | 0.00 | 0.00 | 39 | 1012.3 |
| 20260503180444 | 62 | 267 | 9.0 | 24.0 | 0.00 | 0.00 | 0.00 | 40 | 1012.4 |
| 20260503175713 | 62 | 210 | 9.0 | 24.0 | 0.00 | 0.00 | 0.00 | 39 | 1012.4 |
| 20260503175213 | 62 | 269 | 9.0 | 20.0 | 0.00 | 0.00 | 0.00 | 41 | 1012.4 |
| 20260503174715 | 61 | 261 | 9.0 | 22.0 | 0.00 | 0.00 | 0.00 | 40 | 1012.6 |
| 20260503174213 | 62 | 240 | 9.0 | 22.0 | 0.00 | 0.00 | 0.00 | 40 | 1012.6 |
| 20260503173713 | 62 | 293 | 7.0 | 19.0 | 0.00 | 0.00 | 0.00 | 40 | 1012.6 |
| 20260503173213 | 62 | 249 | 6.0 | 16.0 | 0.00 | 0.00 | 0.00 | 41 | 1012.6 |
| 20260503172946 | 61 | 300 | 7.0 | 17.0 | 0.00 | 0.00 | 0.00 | 41 | 1012.7 |
| 20260503172216 | 61 | 198 | 10.0 | 18.0 | 0.00 | 0.00 | 0.00 | 41 | 1012.9 |
| 20260503171711 | 60 | 253 | 11.0 | 27.0 | 0.00 | 0.00 | 0.00 | 40 | 1013.0 |
| 20260503171435 | 61 | 255 | 9.0 | 27.0 | 0.00 | 0.00 | 0.00 | 40 | 1013.0 |
| 20260503170658 | 61 | 217 | 7.0 | 16.0 | 0.00 | 0.00 | 0.00 | 40 | 1013.1 |
| 20260503170423 | 60 | 287 | 9.0 | 17.0 | 0.00 | 0.00 | 0.00 | 41 | 1013.2 |
| 20260503150539 | 59 | 264 | 6.0 | 16.0 | 0.00 | 0.00 | 0.00 | 43 | 1014.0 |